Simultaneous Nadir Overpasses (SNOs) Predictions

Prediction of SNOs between NOAA-19 and TERRA Satellite Orbit:

Table of predicted SNOs for the next 14.0 days since TLE Epoch: 10/19/2011
Index Date Time (NOAA-19) NOAA-19 Lat,Lon TERRA Lat,Lon Distance(km) Time Diff (sec)
1 10/19/2011 04:58:17 -70.53, -78.21 -70.40, -73.61 171.87 59
2 10/19/2011 05:48:41 68.69, 91.78 68.69, 91.72 2.23 31
3 10/19/2011 06:39:46 -68.59,-100.86 -68.58,-100.79 3.25 64
4 10/19/2011 07:29:44 65.30, 70.26 65.30, 63.33 321.98 39
5 10/21/2011 08:53:03 73.31, 37.94 73.32, 52.80 473.22 8
6 10/21/2011 09:42:48 -69.07,-147.25 -68.96,-146.65 26.46 71
7 10/21/2011 10:33:39 68.66, 20.58 68.64, 20.58 2.53 9
8 10/21/2011 11:24:24 -67.48,-170.68 -67.52,-173.11 103.48 66
9 10/23/2011 13:37:19 71.15, -28.99 71.05, -22.39 237.94 51
10 10/23/2011 14:27:40 -68.73, 141.98 -68.73, 141.97 0.54 40
11 10/23/2011 15:18:36 68.59, -50.57 68.56, -50.58 2.52 48
12 10/23/2011 16:08:52 -65.84, 119.95 -65.86, 114.07 267.06 48
13 10/25/2011 18:21:48 69.63, -97.77 69.47, -95.76 79.95 67
14 10/25/2011 19:12:37 -68.67, 70.81 -68.69, 70.86 2.87 0
15 10/25/2011 20:03:23 67.99,-121.03 68.08,-122.24 51.23 70
16 10/27/2011 22:16:24 -71.55, 20.55 -71.50, 28.55 281.88 45
17 10/27/2011 23:06:29 68.74,-167.74 68.75,-167.77 2.43 55
18 10/27/2011 23:57:33 -68.58, -0.31 -68.59, -0.34 1.52 38
19 10/28/2011 00:47:52 66.43, 169.58 66.50, 164.94 206.16 55
20 10/30/2011 03:00:51 -69.98, -48.04 -69.85, -45.04 115.56 64
21 10/30/2011 03:51:26 68.70, 121.06 68.68, 121.07 2.37 15
22 10/30/2011 04:42:26 -68.35, -71.24 -68.41, -71.64 17.50 72
23 10/30/2011 05:32:13 64.44, 100.41 64.43, 91.90 408.34 24
24 11/01/2011 06:55:26 72.27, 69.46 72.22, 80.03 358.01 33
25 11/01/2011 07:45:25 -68.76,-117.50 -68.76,-117.54 1.56 65
26 11/01/2011 08:36:22 68.63, 49.92 68.65, 49.97 2.73 25




NCC Satellite Simultaneous Nadir Overpasses (SNOs) Prediction Service
